West Palm Beach, FL

2:05 PM EST on November 21, 2019 (GMT -0500)
Palm Beach International

Weather History for KPBI - October, 2019

Change the Weather History Date:

Monday, October 14, 2019

  Actual Average Record
Temperature  
Mean Temperature 81 °F 79 °F  
Max Temperature 85 °F 85 °F 91 °F (1901)
Min Temperature 77 °F 72 °F 55 °F (1977)
Degree Days  
Heating Degree Days 0 0  
Month to date heating degree days 0 0  
Since 1 July heating degree days 0 0  
Cooling Degree Days 16 14  
Month to date cooling degree days 235 207  
Year to date cooling degree days 3944 3415  
Growing Degree Days 30 (Base 50)    
Moisture  
Dew Point 70 °F    
Average Humidity 75    
Maximum Humidity 85    
Minimum Humidity 65    
Precipitation  
Precipitation 0.01 in 0.15 in 6.25 in (1908)
Month to date precipitation 4.17 2.62  
Year to date precipitation 52.02 51.69  
Snow  
Snow 0.00 in - - ()
Month to date snowfall 0.0  
Since 1 July snowfall 0.0  
Since 1 September snowfall 0.0  
Snow Depth 0.00 in    
Sea Level Pressure  
Sea Level Pressure 30.04 in    
Wind  
Wind Speed 9 mph (East)    
Max Wind Speed 15 mph    
Max Gust Speed 19 mph    
Visibility 10 miles    
Events Rain    
T = Trace of Precipitation, MM = Missing Value Source: NWS Daily Summary

Daily Weather History Graph

Daily Weather History Graph

Search for Another Location

Airport or City:

Astronomy

Oct. 14, 2019 Rise Set
Actual Time 7:19 AM EDT 6:53 PM EDT
Civil Twilight 6:55 AM EDT 7:16 PM EDT
Nautical Twilight 6:28 AM EDT 7:43 PM EDT
Astronomical Twilight 6:01 AM EDT 8:10 PM EDT
Moon 7:43 PM EDT (10/14) 7:51 AM EDT (10/14)
Length of Visible Light 12h 20m
Length of Day
11h 34m
Waxing Gibbous, 99% of the Moon is Illuminated
Oct 14
Waxing Gibbous
Oct 21
Last Quarter
Oct 27
New
Nov 4
First Quarter
Nov 12
Full

Hourly Weather History & Observations

Time (EDT) Temp. Heat Index Dew Point Humidity Pressure Visibility Wind Dir Wind Speed Gust Speed Precip Events Conditions
12:53 AM 80.1 °F 83.2 °F 70.0 °F 71% 30.04 in 10.0 mi ESE 6.9 mph - N/A   Mostly Cloudy
1:53 AM 80.1 °F 83.6 °F 71.1 °F 74% 30.03 in 10.0 mi SE 5.8 mph - N/A   Mostly Cloudy
2:53 AM 79.0 °F - 70.0 °F 74% 30.01 in 10.0 mi ESE 4.6 mph - N/A   Mostly Cloudy
3:53 AM 79.0 °F - 72.0 °F 79% 30.01 in 10.0 mi East 8.1 mph - N/A   Mostly Cloudy
4:53 AM 79.0 °F - 72.0 °F 79% 30.01 in 10.0 mi North 3.5 mph - N/A   Mostly Cloudy
5:53 AM 78.1 °F - 72.0 °F 81% 30.02 in 10.0 mi NNE 4.6 mph - N/A   Mostly Cloudy
6:53 AM 78.1 °F - 72.0 °F 81% 30.03 in 10.0 mi NE 10.4 mph - N/A   Scattered Clouds
7:23 AM 77.0 °F - 73.0 °F 88% 30.04 in 10.0 mi East 8.1 mph - 0.00 in Rain Light Rain
7:53 AM 77.0 °F - 72.0 °F 84% 30.05 in 10.0 mi ENE 6.9 mph - 0.01 in   Mostly Cloudy
8:18 AM 78.1 °F - 73.0 °F 84% 30.05 in 10.0 mi Calm Calm - N/A   Mostly Cloudy
8:53 AM 79.0 °F - 73.0 °F 82% 30.06 in 10.0 mi East 5.8 mph - N/A   Mostly Cloudy
9:53 AM 82.0 °F 87.4 °F 73.0 °F 74% 30.08 in 10.0 mi East 10.4 mph - N/A   Scattered Clouds
10:53 AM 84.0 °F 89.6 °F 72.0 °F 67% 30.08 in 10.0 mi East 11.5 mph - N/A   Mostly Cloudy
11:53 AM 84.0 °F 89.0 °F 71.1 °F 65% 30.08 in 10.0 mi ESE 10.4 mph - N/A   Scattered Clouds
12:53 PM 84.0 °F 89.0 °F 71.1 °F 65% 30.06 in 10.0 mi East 12.7 mph - N/A   Mostly Cloudy
1:53 PM 84.9 °F 90.1 °F 71.1 °F 63% 30.04 in 10.0 mi East 15.0 mph - N/A   Mostly Cloudy
2:53 PM 84.0 °F 89.0 °F 71.1 °F 65% 30.02 in 10.0 mi East 13.8 mph - N/A   Scattered Clouds
3:53 PM 82.9 °F 87.0 °F 70.0 °F 65% 30.01 in 10.0 mi East 10.4 mph - N/A   Scattered Clouds
4:53 PM 82.9 °F 86.5 °F 69.1 °F 63% 30.02 in 10.0 mi ESE 13.8 mph - N/A   Scattered Clouds
5:53 PM 82.0 °F 84.5 °F 66.9 °F 60% 30.03 in 10.0 mi East 10.4 mph - N/A   Scattered Clouds
6:53 PM 81.0 °F 83.3 °F 66.9 °F 62% 30.04 in 10.0 mi East 9.2 mph - N/A   Scattered Clouds
7:53 PM 81.0 °F 83.3 °F 66.9 °F 62% 30.05 in 10.0 mi ENE 10.4 mph - N/A   Scattered Clouds
8:53 PM 80.1 °F 82.7 °F 68.0 °F 67% 30.06 in 10.0 mi East 10.4 mph - N/A   Scattered Clouds
9:53 PM 80.1 °F 82.9 °F 69.1 °F 69% 30.06 in 10.0 mi East 10.4 mph - N/A   Scattered Clouds
10:53 PM 79.0 °F - 68.0 °F 69% 30.08 in 10.0 mi ENE 8.1 mph - N/A   Scattered Clouds
11:53 PM 79.0 °F - 68.0 °F 69% 30.09 in 10.0 mi East 9.2 mph - N/A   Scattered Clouds